Lid_Strength_Index
1 2 2 2 2 2 2 2 1 1 1 2 3 3 4 5 5 5 4 3 3 3 3 3 3 3 3 6 6 0 -2 -1 4 6 6 5 6 7 8 8 7 9 8 9 6 5 5
1 2 2 2 2 2 2 2 1 1 1 2 3 3 4 5 5 5 4 3 3 4 3 3 3 3 4 8 4 -0 3 5 5 6 5 5 5 6 7 7 7 7 7 7 5 6 5
1 1 1 1 2 2 2 1 1 1 1 2 3 3 4 5 5 4 4 3 4 4 3 3 3 3 6 6 3 3 4 5 5 5 5 5 5 6 6 7 7 7 7 6 7 8 6
1 1 1 1 1 1 1 1 1 1 1 2 3 4 5 5 5 4 3 3 4 3 2 3 3 3 7 4 3 4 4 4 4 4 4 4 5 5 6 6 7 8 8 8 7 7 6
1 1 1 1 1 1 1 1 1 1 1 2 3 4 5 5 6 5 3 3 3 1 2 3 3 5 5 2 3 4 3 5 5 5 4 5 5 6 6 7 8 8 10 9 9 6 7
1 1 1 1 1 1 1 1 1 1 1 2 3 4 5 5 6 5 4 3 2 2 2 2 3 6 5 6 4 4 4 4 5 5 6 6 6 7 7 7 10 10 9 10 10 8 8
0 1 0 0 0 1 1 1 1 1 2 2 3 4 5 5 6 4 4 5 6 6 6 8 7 7 6 5 4 5 5 5 5 6 7 7 7 8 8 8 8 8 9 10 9 7 9
1 0 1 0 0 1 1 1 1 1 2 2 3 4 5 5 6 5 4 6 7 7 9 7 8 8 7 5 7 5 4 6 6 8 7 7 8 8 8 8 8 8 10 10 9 7 8
1 1 1 0 0 1 1 1 1 1 2 2 3 4 5 6 6 7 7 5 5 6 10 8 7 7 6 6 7 6 5 6 7 8 8 8 7 7 7 8 8 8 8 10 9 8 8
1 1 1 1 1 1 1 1 1 1 2 2 3 4 5 6 7 8 9 5 5 7 9 8 7 6 7 6 7 5 6 6 7 8 8 7 7 7 7 8 8 9 8 7 9 10 12
1 1 2 1 1 1 1 1 1 1 1 2 3 3 4 5 8 8 8 5 5 5 14 8 7 5 7 7 7 7 6 6 7 7 7 8 7 8 8 8 8 9 7 8 8 9 10
2 1 2 2 1 1 1 1 1 2 2 2 3 3 5 7 8 7 7 5 6 10 13 9 8 8 8 8 8 7 7 5 5 7 6 8 6 7 7 7 7 6 7 8 8 9 13
2 1 1 1 1 1 1 2 1 2 2 3 3 4 6 6 8 7 6 5 10 13 8 10 9 9 9 10 9 8 8 7 7 9 10 7 7 6 7 7 6 7 9 11 13 13 14
2 2 1 2 1 1 1 1 2 2 2 3 4 5 7 6 6 7 5 6 13 10 9 7 9 10 11 10 9 8 8 8 6 7 9 9 10 7 6 8 8 8 9 10 15 13 13
2 2 1 1 1 1 1 1 2 3 3 4 6 5 7 6 6 6 5 10 10 10 7 8 10 11 11 10 9 8 8 8 7 7 9 10 10 6 6 7 7 8 9 8 12 11 13
2 2 1 1 1 1 1 1 2 2 3 5 5 6 6 5 5 5 7 11 10 8 7 7 11 10 11 10 9 8 8 7 7 7 6 8 10 8 7 6 7 7 7 10 9 14 14
3 2 2 2 2 1 1 1 2 2 3 5 5 7 4 4 5 7 10 10 9 7 6 7 8 9 10 9 8 9 9 8 8 7 6 8 8 9 7 8 9 8 8 9 10 11 13
4 3 2 1 2 1 2 2 2 2 5 5 5 9 3 5 8 11 11 9 9 7 6 6 7 7 8 8 9 9 9 8 6 8 8 8 8 10 9 7 7 7 9 9 11 13 12
4 3 3 2 2 2 2 2 2 2 5 5 7 7 3 5 9 10 8 8 7 7 7 7 7 6 7 8 9 8 8 6 6 6 8 7 9 12 10 8 7 9 8 9 9 10 13
3 3 3 2 2 2 2 2 2 3 5 5 7 9 5 7 7 8 9 8 9 6 7 7 7 6 7 9 7 8 8 6 6 6 6 6 9 11 12 11 9 11 10 9 9 11 12
4 3 3 3 2 2 2 2 3 4 5 5 7 8 7 8 7 8 9 9 10 8 6 6 7 7 7 9 8 9 7 7 6 5 6 7 11 10 9 9 9 10 10 9 11 11 12
3 4 3 3 2 2 2 2 3 4 5 6 8 7 7 8 7 7 9 9 9 8 7 7 8 7 7 8 8 9 8 7 8 6 7 7 11 9 11 9 9 10 9 9 10 10 10
3 4 4 3 3 2 2 2 3 4 5 6 7 6 6 8 8 8 8 9 8 8 6 6 6 7 7 7 5 5 5 6 6 7 8 9 10 10 13 10 10 12 11 10 9 9 9
3 3 4 4 3 2 2 2 3 4 5 5 5 4 6 8 8 8 8 7 7 7 7 6 6 6 6 4 4 4 5 6 6 7 6 9 10 10 12 11 16 10 7 7 9 9 8
3 3 4 4 4 2 2 2 3 3 5 4 5 4 6 8 7 7 7 8 6 6 6 6 5 4 4 5 7 9 9 8 8 7 7 7 9 12 12 13 12 11 9 9 9 10 7
2 3 4 4 3 3 2 2 3 3 4 4 4 4 5 7 7 6 7 7 8 7 7 6 5 4 5 6 8 12 12 11 11 9 7 7 7 9 12 14 16 11 7 6 6 12 7
2 3 4 4 3 3 2 2 2 3 4 4 4 3 5 6 5 6 7 7 6 6 7 6 6 5 4 7 10 10 11 9 11 11 11 10 10 12 12 13 12 7 7 5 12 11 7
3 3 4 4 4 3 2 2 2 3 4 4 4 3 5 5 5 4 5 6 6 6 7 6 6 6 7 9 9 10 10 9 10 10 10 11 11 12 11 12 15 7 6 9 7 6 6
3 3 4 4 4 4 2 2 2 3 3 4 4 4 4 6 5 4 4 4 5 4 5 5 6 6 6 8 8 8 9 8 10 12 8 11 9 10 10 10 7 6 6 5 5 5 6